Weather Roundup
Issued by NWS Chicago, IL

Home | Current Version | Previous Version | Graphics & Text | Print | Product List | Glossary On
Versions: 1 2 3 4 5 6 7 8 9 10 11 12 13 14 15 16 17 18 19 20 21 22 23 24 25 26 27 28 29 30 31 32 33 34 35 36 37 38 39 40 41 42 43 44 45 46 47 48 49 50
000
NZUS59 KLOT 280110
HRRLOT

CHICAGO AREA WEATHER ROUNDUP
NATIONAL WEATHER SERVICE CHICAGO/ROMEOVILLE IL
700 PM CST FRI FEB 27 2015

NOTE: "FAIR" INDICATES FEW OR NO CLOUDS BELOW 12,000 FEET WITH NO
SIGNIFICANT WEATHER AND/OR OBSTRUCTIONS TO VISIBILITY.

* THESE STATIONS ARE NOT UNDER NWS QUALITY CONTROL. THEY ALSO MAY NOT
  REPORT WEATHER SUCH AS PRECIPITATION OR FOG.

ILZ005-006-012>014-019>023-280200-
NORTHEAST ILLINOIS

CITY           SKY/WX    TMP DP  RH WIND       PRES   REMARKS
OHARE          PTCLDY     8  -5  55 SW8       30.63R WCI  -4
MIDWAY         CLEAR     10  -4  53 SW10      30.64R WCI  -4
AURORA           N/A      2  -8  63 SW5       30.64R WCI  -8
LANSING*       CLEAR      5  -6  61 SW5       30.65R WCI  -4
JOLIET*        CLEAR      0  -7  73 CALM      30.66R
WAUKEGAN       CLEAR      7  -5  57 SW6       30.60R WCI  -3
DUPAGE AIRPORT CLEAR      4  -6  63 SW6       30.62R WCI  -7
WHEELING       CLEAR     10  -5  50 W6        30.64R WCI   0
KANKAKEE*      PTCLDY     0  -5  80 CALM      30.66R
MORRIS*        CLEAR      4  -3  73 CALM      30.65R
LEWIS AIRPORT* CLEAR      4  -7  60 SW5       30.64S WCI  -5
NORTHERLY IS     N/A     12  -3  51 SW12        N/A  WCI  -2
$$

WIZ051-052-058>065-066-070>072-280200-
SOUTHEAST WISCONSIN

CITY           SKY/WX    TMP DP  RH WIND       PRES   REMARKS
MILWAUKEE      CLEAR     11  -6  46 SW7       30.59R WCI   0
KENOSHA*       CLEAR      4  -8  57 W8        30.60R WCI  -9
RACINE*        CLEAR      9  -6  50 SW8       30.61R WCI  -3
BURLINGTON     CLEAR      4  -7  60 SW5       30.59R WCI  -6
WAUKESHA       CLEAR      7  -6  56 SW10      30.57R WCI  -8
WEST BEND      CLEAR      9  -4  56 SW8       30.55R WCI  -4
$$

INZ001>003-010>013-019-020-280200-
NORTHWEST INDIANA

CITY           SKY/WX    TMP DP  RH WIND       PRES   REMARKS
GARY*          NOT AVBL
MICHIGAN CITY* NOT AVBL
RENSSELAER*    NOT AVBL
VALPARAISO     CLEAR      5  -6  60 W8        30.63R WCI  -8
$$

LMZ740>746-280200-
SOUTHERN LAKE MICHIGAN

STATION/POSITION TIME  SKY/WX   TEMP WIND        PRES    VSBY
                                AIR  DIR/SP/G
                 (UTC)          (F)  (DEG/KT/KT) (MB)    (MI)
HARRISON CRIB    0100            13  220/ 15/ 18   N/A
BURNHAM HARBOR   0100            12  220/  6/ 11   N/A
CALUMET HARBOR   0100            11  220/  6/ 10 1036.1R
BURNS HARBOR     NOT AVBL
MICHIGAN CITY    0100            12  180/ 10/ 12   N/A
$$

ABBREVIATIONS USED IN REMARKS
   TC - TEMPERATURE IN CELSIUS
  WCI - WIND CHILL INDEX
   HX - HEAT INDEX
  VSB - VISIBILITY
$$


USA.gov is the U.S. government's official web portal to all federal, state and local government web resources and services.